Regional Weather Roundup
Issued by NWS

Home | Current Version | Previous Version | Graphics & Text | Print | Product List | Glossary On
Versions: 1 2 3 4 5 6 7 8 9 10 11 12 13 14 15 16 17 18 19 20 21 22 23 24 25 26 27 28 29 30 31 32 33 34 35 36 37 38 39 40 41 42 43 44 45 46 47 48 49 50
000
ASUS45 KCYS 081410
RWRWY

WYOMING REGIONAL WEATHER ROUNDUP
NATIONAL WEATHER SERVICE CHEYENNE WY
700 AM MST MON FEB 08 2016

NOTE:  "FAIR" INDICATES FEW OR NO CLOUDS BELOW 12,000 FEET
WITH NO SIGNIFICANT WEATHER AND/OR OBSTRUCTIONS TO VISIBILITY.

WYZ001-081500-
YELLOWSTONE NATIONAL PARK

CITY           SKY/WX    TMP DP  RH WIND       PRES   REMARKS
LK YELLOWSTONE   N/A      7   4  87 NW3       30.60R
W YELLOWSTONE  NOT AVBL

$$
WYZ002>013-054>058-071-098>099-081500-
NORTHERN WYOMING

CITY           SKY/WX    TMP DP  RH WIND       PRES   REMARKS
JACKSON        CLEAR     10   9  92 CALM      30.61R
CODY           FAIR      21  12  68 CALM      30.43R
GREYBULL       FAIR      19  16  88 N3        30.47R
WORLAND        FAIR      17  14  88 S7        30.46R WCI   8
SHERIDAN       FAIR      26  16  65 CALM      30.42R
BUFFALO        CLOUDY    24  12  60 SW5       30.39S WCI  18
GILLETTE       FAIR      22  10  60 W13       30.39S WCI  10
HULETT         CLOUDY    27  10  50 W3        30.38S
NEWCASTLE      FAIR      23   9  54 NW16      30.33R WCI  10

$$
WYZ014>020-022>026-101>103-081500-
CENTRAL WYOMING

CITY           SKY/WX    TMP DP  RH WIND       PRES   REMARKS
BIG PINEY      FAIR      22  15  75 NE16      30.52R WCI   8
PINEDALE       FAIR      30  21  69 W25G31    30.50R WCI  16
DUBOIS         FAIR      32  21  64 NW31      30.46R WCI  17
LANDER         FAIR      19  10  68 CALM      30.43R
RIVERTON       FAIR      14   8  77 NE5       30.44R WCI   6
CASPER         FAIR      23  12  62 SW13      30.41R WCI  11
DOUGLAS        CLOUDY    21  13  71 NW13        N/A  WCI   9

$$
WYZ021-027>030-104>119-081500-
SOUTHERN WYOMING

CITY           SKY/WX    TMP DP  RH WIND       PRES   REMARKS
EVANSTON       FAIR      22  15  75 SW5       30.61R WCI  16
FORT BRIDGER   SUNNY     30  18  59 W22       30.61R WCI  17
ROCK SPRINGS   FAIR      24  16  71 W21       30.51R WCI   9
DIXON          FAIR      11   7  83 S6        30.56R WCI   2
RAWLINS        FAIR      22  13  68 SW17      30.46R WCI   8
SARATOGA       CLOUDY    27  18  69 W15       30.46R WCI  15
LARAMIE          N/A     30  17  58 NW8       30.36R WCI  22
CHEYENNE       CLOUDY    34  19  54 N15G29    30.32R WCI  24
TORRINGTON     CLOUDY    26  13  57 NW7       30.39R WCI  18
PINE BLUFFS    CLOUDY    23  14  68 NW6       30.36R WCI  16

$$



USA.gov is the U.S. government's official web portal to all federal, state and local government web resources and services.